Location: McFarlands Corners
(41.4117°N, 81.3382°W)
Time: 07:25:09
(UTC+00:00)

Hubble Space Telescope - Pass Details

Date: 29 January 2026
Orbit: 478 x 480 km, 28.5° (Epoch: 10 February)

Event Time Altitude Azimuth Distance (km) Brightness Sun altitude
Rises 23:53:21 0° 239° (WSW) 2,512 5.6 -14.3°
Reaches altitude 10° 23:57:21 10° 197° (SSW) 1,634 3.6 -15.1°
Maximum altitude 23:58:01 10° 187° (S) 1,611 3.4 -15.2°
Drops below altitude 10° 23:58:41 10° 177° (S) 1,634 3.3 -15.3°
Enters shadow 00:00:59 - 148° (SSE) 2,024 3.5 -15.7°
